Kaneohe MCBH, HI

12:38 AM HST on May 27, 2017 (GMT -1000)
Kaneohe Bay Marine Corps Air Facility

Weather History for PHNG - January, 2013

Change the Weather History Date:

Tuesday, January 29, 2013

  Actual Average Record
Temperature  
Mean Temperature 72 °F -  
Max Temperature 77 °F 75 °F 81 °F (2016)
Min Temperature 68 °F 66 °F 63 °F (1998)
Cooling Degree Days 8    
Growing Degree Days 22 (Base 50)    
Moisture  
Dew Point 65 °F    
Average Humidity 80    
Maximum Humidity 90    
Minimum Humidity 68    
Precipitation  
Precipitation 0.00 in - - ()
Sea Level Pressure  
Sea Level Pressure 29.97 in    
Wind  
Wind Speed 2 mph (NNE)    
Max Wind Speed 8 mph    
Max Gust Speed -    
Visibility 10 miles    
Events      
Averages and records for this station are not official NWS values.
T = Trace of Precipitation, MM = Missing Value Source: NWS Daily Summary

Daily Weather History Graph

Daily Weather History Graph

Search for Another Location

Airport or City:

Trip Planner

Search our weather history database for the weather conditions in past years. The results will help you decide how hot, cold, wet, or windy it might be!

Date:

Astronomy

Jan. 29, 2013 Rise Set
Actual Time 7:09 AM HST 6:19 PM HST
Civil Twilight 6:46 AM HST 6:42 PM HST
Nautical Twilight 6:19 AM HST 7:09 PM HST
Astronomical Twilight 5:52 AM HST 7:36 PM HST
Moon 8:56 PM HST (1/29) 8:38 AM HST (1/29)
Length of Visible Light 11h 56m
Length of Day
11h 10m
Waning Gibbous, 92% of the Moon is Illuminated
Jan 29
Waning Gibbous
Feb 3
Last Quarter
Feb 9
New
Feb 17
First Quarter
Feb 25
Full

Hourly Weather History & Observations

Time (HST) Temp. Dew Point Humidity Pressure Visibility Wind Dir Wind Speed Gust Speed Precip Events Conditions
12:57 AM 68.0 °F 64.9 °F 90% 29.94 in 10.0 mi South 3.5 mph - N/A   Partly Cloudy
1:57 AM 68.4 °F 64.0 °F 86% 29.94 in 10.0 mi Calm Calm - N/A   Clear
2:12 AM 68.0 °F 62.6 °F 83% 29.95 in 10.0 mi SSE 3.5 mph - N/A   Partly Cloudy
2:57 AM 68.2 °F 62.1 °F 81% 29.93 in 10.0 mi Calm Calm - N/A   Clear
3:57 AM 68.0 °F 63.0 °F 84% 29.92 in 10.0 mi Calm Calm - N/A   Overcast
4:57 AM 68.7 °F 62.1 °F 79% 29.92 in 10.0 mi Calm Calm - N/A   Overcast
5:57 AM 69.1 °F 64.0 °F 84% 29.94 in 10.0 mi Calm Calm - N/A   Overcast
6:57 AM 69.6 °F 64.9 °F 85% 29.95 in 10.0 mi Calm Calm - N/A   Overcast
7:57 AM 69.8 °F 64.9 °F 84% 29.96 in 10.0 mi Calm Calm - N/A   Overcast
8:57 AM 72.0 °F 66.0 °F 81% 29.98 in 10.0 mi Calm Calm - N/A   Scattered Clouds
9:57 AM 73.0 °F 66.9 °F 81% 29.99 in 10.0 mi Calm Calm - N/A   Scattered Clouds
10:57 AM 74.7 °F 66.0 °F 74% 29.98 in 10.0 mi NNE 5.8 mph - N/A   Mostly Cloudy
11:57 AM 77.4 °F 66.9 °F 70% 29.97 in 10.0 mi NNE 8.1 mph - N/A   Mostly Cloudy
12:57 PM 75.4 °F 66.9 °F 75% 29.95 in 10.0 mi Variable 6.9 mph - N/A   Mostly Cloudy
1:57 PM 75.6 °F 66.9 °F 74% 29.93 in 10.0 mi NNE 6.9 mph - N/A   Mostly Cloudy
2:57 PM 75.6 °F 66.0 °F 72% 29.92 in 10.0 mi North 6.9 mph - N/A   Overcast
3:16 PM 75.2 °F 66.2 °F 73% 29.94 in 10.0 mi North 8.1 mph - N/A   Overcast
3:23 PM 75.2 °F 66.2 °F 73% 29.94 in 10.0 mi North 5.8 mph - N/A   Overcast
3:57 PM 77.4 °F 66.0 °F 68% 29.92 in 10.0 mi North 5.8 mph - N/A   Overcast
4:57 PM 75.9 °F 66.0 °F 71% 29.95 in 10.0 mi NNE 3.5 mph - N/A   Mostly Cloudy
5:57 PM 73.8 °F 64.9 °F 74% 29.96 in 10.0 mi Calm Calm - N/A   Scattered Clouds
6:57 PM 72.1 °F 66.0 °F 81% 29.97 in 10.0 mi Calm Calm - N/A   Overcast
7:57 PM 71.4 °F 66.0 °F 83% 29.99 in 10.0 mi Calm Calm - N/A   Scattered Clouds
8:57 PM 70.7 °F 66.9 °F 88% 30.01 in 10.0 mi Calm Calm - N/A   Mostly Cloudy
9:09 PM 71.6 °F 66.2 °F 83% 30.03 in 10.0 mi Calm Calm - N/A   Scattered Clouds
9:41 PM 71.6 °F 66.2 °F 83% 30.03 in 10.0 mi South 3.5 mph - N/A   Mostly Cloudy
9:57 PM 70.2 °F 66.0 °F 87% 30.02 in 10.0 mi Calm Calm - N/A   Mostly Cloudy
10:10 PM 69.8 °F 66.2 °F 88% 30.04 in 10.0 mi Calm Calm - N/A   Scattered Clouds
10:57 PM 69.6 °F 66.0 °F 88% 30.02 in 10.0 mi Calm Calm - N/A   Clear
11:57 PM 68.5 °F 64.0 °F 85% 30.02 in 10.0 mi Calm Calm - N/A   Clear